EW7738 Weather Reports


time (UTC)temp
F
wind
direction
speed
knots
gust
knots
rain 1hr
in
rain 24hr
in
rain mn
in
humidity
%
barometer
mb
20211017160304 56 329 0.0 0.0 0.00 0.15 0.00 62 1012.7
20211017155804 57 323 0.0 0.0 0.00 0.15 0.00 62 1012.7
20211017155306 57 300 0.0 0.0 0.00 0.15 0.00 63 1012.8
20211017154803 56 286 0.0 0.0 0.00 0.15 0.00 64 1012.8
20211017154303 56 336 0.0 0.0 0.00 0.15 0.00 64 1012.9
20211017153804 56 344 0.0 0.0 0.00 0.15 0.00 65 1012.9
20211017153303 56 308 0.0 0.0 0.00 0.15 0.00 65 1012.9
20211017152804 56 13 0.0 0.0 0.00 0.15 0.00 66 1012.9
20211017152306 56 316 0.0 0.0 0.00 0.15 0.00 65 1013.0
20211017151804 56 296 0.0 0.0 0.00 0.15 0.00 66 1013.0
20211017151303 56 302 0.0 0.0 0.00 0.15 0.00 64 1013.0
20211017150803 56 328 0.0 0.0 0.00 0.15 0.00 67 1013.0
20211017150303 56 349 0.0 0.0 0.00 0.15 0.00 66 1012.9
20211017145803 56 306 0.0 0.0 0.00 0.15 0.00 66 1013.0
20211017145306 56 25 0.0 0.0 0.00 0.15 0.00 68 1013.1
20211017144803 55 309 0.0 0.0 0.00 0.15 0.00 68 1013.1
20211017144303 55 45 0.0 0.0 0.00 0.15 0.00 69 1013.2
20211017143804 54 323 0.0 0.0 0.00 0.15 0.00 69 1013.2
20211017143304 54 342 0.0 0.0 0.00 0.15 0.00 70 1013.3
20211017142804 54 333 0.0 0.0 0.00 0.15 0.00 70 1013.3
20211017142305 54 315 0.0 0.0 0.00 0.15 0.00 72 1013.3
20211017141803 54 280 0.0 0.0 0.00 0.15 0.00 74 1013.4
20211017141304 53 319 0.0 0.0 0.00 0.15 0.00 73 1013.3
20211017140804 53 271 0.0 0.0 0.00 0.15 0.00 73 1013.3
20211017140303 53 320 0.0 0.0 0.00 0.15 0.00 73 1013.4
20211017135804 53 299 0.0 0.0 0.00 0.15 0.00 72 1013.3
20211017135305 53 290 0.0 0.0 0.00 0.15 0.00 73 1013.3
20211017134804 53 278 0.0 0.0 0.00 0.15 0.00 72 1013.3
20211017134304 53 318 0.0 0.0 0.00 0.15 0.00 73 1013.3
20211017133804 53 294 0.0 0.0 0.00 0.15 0.00 73 1013.3
20211017133304 52 280 0.0 0.0 0.00 0.15 0.00 74 1013.2
20211017132803 52 272 0.0 0.0 0.00 0.15 0.00 75 1013.3
20211017132305 52 275 0.0 0.0 0.00 0.15 0.00 76 1013.2
20211017131804 52 292 0.0 0.0 0.00 0.15 0.00 76 1013.3
20211017131303 51 289 0.0 0.0 0.00 0.15 0.00 77 1013.3
20211017130804 51 310 0.0 0.0 0.00 0.15 0.00 78 1013.3
20211017130303 51 287 0.0 0.0 0.00 0.15 0.00 79 1013.3
20211017125804 50 291 0.0 0.0 0.00 0.15 0.00 81 1013.2
20211017125306 50 252 0.0 0.0 0.00 0.15 0.00 81 1013.2
20211017124803 50 242 0.0 0.0 0.00 0.15 0.00 81 1013.2
20211017124303 49 249 0.0 0.0 0.00 0.15 0.00 82 1013.2
20211017123803 49 263 0.0 0.0 0.00 0.15 0.00 82 1013.2
20211017123303 49 248 0.0 0.0 0.00 0.15 0.00 83 1013.0
20211017122804 49 261 0.0 0.0 0.00 0.15 0.00 83 1013.0
20211017122306 49 261 0.0 0.0 0.00 0.15 0.00 83 1013.0
20211017121804 48 254 0.0 0.0 0.00 0.15 0.00 83 1012.9
20211017121304 48 259 0.0 0.0 0.00 0.15 0.00 83 1012.9
20211017120803 48 244 0.0 0.0 0.00 0.15 0.00 83 1012.9
20211017120304 48 246 0.0 0.0 0.00 0.15 0.00 83 1012.8
20211017115804 48 235 0.0 0.0 0.00 0.15 0.00 83 1012.8
20211017115306 48 253 0.0 0.0 0.00 0.15 0.00 83 1012.7
20211017114803 48 245 0.0 0.0 0.00 0.15 0.00 83 1012.6
20211017114303 48 251 0.0 0.0 0.00 0.15 0.00 83 1012.6
20211017113803 48 264 0.0 0.0 0.00 0.15 0.00 83 1012.6
20211017113304 48 250 0.0 0.0 0.00 0.15 0.00 83 1012.6
20211017112804 48 259 0.0 0.0 0.00 0.15 0.00 83 1012.5
20211017112305 48 251 0.0 0.0 0.00 0.15 0.00 82 1012.5
20211017111804 48 255 0.0 0.0 0.00 0.15 0.00 82 1012.5
20211017111304 49 251 0.0 0.0 0.00 0.15 0.00 82 1012.4
20211017110804 49 241 0.0 0.0 0.00 0.15 0.00 82 1012.4
20211017110304 49 247 0.0 0.0 0.00 0.15 0.00 82 1012.5
20211017105804 49 256 0.0 0.0 0.00 0.15 0.00 82 1012.4
20211017105306 49 250 0.0 0.0 0.00 0.15 0.00 81 1012.3
20211017104804 49 243 0.0 0.0 0.00 0.15 0.00 81 1012.4
20211017104304 49 248 0.0 0.0 0.00 0.15 0.00 81 1012.4
20211017103804 49 243 0.0 0.0 0.00 0.15 0.00 81 1012.4
20211017103303 49 244 0.0 0.0 0.00 0.15 0.00 81 1012.3
20211017102804 49 272 0.0 0.0 0.00 0.15 0.00 80 1012.3
20211017102306 49 257 0.0 0.0 0.00 0.15 0.00 80 1012.3
20211017101804 50 242 0.0 0.0 0.00 0.15 0.00 80 1012.3
20211017101304 50 235 0.0 0.0 0.00 0.15 0.00 79 1012.2
20211017100804 50 229 0.0 0.0 0.00 0.15 0.00 79 1012.2
20211017100303 50 225 0.0 0.0 0.00 0.15 0.00 79 1012.1
20211017095803 50 246 0.0 0.0 0.00 0.15 0.00 79 1012.0
20211017095306 50 260 0.0 0.0 0.00 0.15 0.00 79 1012.0
20211017094803 50 260 0.0 0.0 0.00 0.15 0.00 78 1012.0
20211017094304 50 265 0.0 0.0 0.00 0.15 0.00 79 1012.0
20211017093804 50 266 0.0 0.0 0.00 0.15 0.00 78 1012.1
20211017093303 50 262 0.0 0.0 0.00 0.15 0.00 78 1012.1
20211017092804 50 268 0.0 0.0 0.00 0.15 0.00 79 1012.0
20211017092306 50 254 0.0 0.0 0.00 0.15 0.00 79 1012.0
20211017091804 50 266 0.0 0.0 0.00 0.15 0.00 79 1011.9
20211017091304 50 273 0.0 0.0 0.00 0.15 0.00 79 1011.9
20211017090803 50 250 0.0 0.0 0.00 0.15 0.00 79 1011.9
20211017090303 50 273 0.0 0.0 0.00 0.15 0.00 79 1011.8
20211017085803 50 284 0.0 0.0 0.00 0.15 0.00 79 1011.8
20211017085305 50 285 0.0 0.0 0.00 0.15 0.00 79 1011.8
20211017084803 50 276 0.0 0.0 0.00 0.15 0.00 79 1011.9
20211017084304 50 270 0.0 0.0 0.00 0.15 0.00 79 1011.8
20211017083804 50 253 0.0 0.0 0.00 0.15 0.00 79 1011.7
20211017083304 50 252 0.0 0.0 0.00 0.15 0.00 79 1011.8
20211017082803 50 264 0.0 0.0 0.00 0.15 0.00 79 1011.7
20211017082305 50 254 0.0 0.0 0.00 0.15 0.00 79 1011.7
20211017081803 50 255 0.0 0.0 0.00 0.15 0.00 79 1011.7
20211017081304 50 271 0.0 0.0 0.00 0.15 0.00 79 1011.8
20211017080804 50 245 0.0 0.0 0.00 0.15 0.00 79 1011.8
20211017080303 50 255 0.0 0.0 0.00 0.15 0.00 79 1011.8
20211017075804 50 248 0.0 0.0 0.00 0.15 0.00 79 1011.7
20211017075306 50 245 0.0 0.0 0.00 0.15 0.00 79 1011.7
20211017074803 50 245 0.0 0.0 0.00 0.15 0.00 79 1011.7
20211017074304 50 238 0.0 0.0 0.00 0.15 0.00 79 1011.7
20211017073803 50 273 0.0 0.0 0.00 0.15 0.00 79 1011.7
20211017073303 50 259 0.0 0.0 0.00 0.15 0.00 79 1011.7
20211017072804 50 271 0.0 0.0 0.00 0.15 0.00 79 1011.8
20211017072305 50 246 0.0 0.0 0.00 0.15 0.00 79 1011.8
20211017071804 50 268 0.0 0.0 0.00 0.15 0.00 79 1011.8
20211017071304 50 276 0.0 0.0 0.00 0.15 0.00 79 1011.8
20211017070803 51 260 0.0 0.0 0.00 0.15 0.00 79 1011.8
20211017070304 51 260 0.0 0.0 0.00 0.15 0.00 79 1011.8
20211017065804 51 260 0.0 0.0 0.00 0.15 0.00 79 1011.8
20211017065305 51 260 0.0 0.0 0.00 0.15 0.00 78 1011.8
20211017064804 51 244 0.0 0.0 0.00 0.15 0.00 79 1011.8
20211017064303 51 254 0.0 0.0 0.00 0.15 0.00 78 1011.8
20211017063803 51 240 0.0 0.0 0.00 0.15 0.00 78 1011.7
20211017063303 51 239 0.0 0.0 0.00 0.15 0.00 78 1011.7
20211017062803 51 239 0.0 0.0 0.00 0.15 0.00 78 1011.7
20211017062307 51 239 0.0 0.0 0.00 0.15 0.00 78 1011.8
20211017061804 51 257 0.0 0.0 0.00 0.15 0.00 78 1011.8
20211017061303 51 257 0.0 0.0 0.00 0.15 0.00 78 1011.8
20211017060803 51 257 0.0 0.0 0.00 0.15 0.00 78 1011.8
20211017060304 51 257 0.0 0.0 0.00 0.15 0.00 79 1011.7
20211017055804 52 257 0.0 0.0 0.00 0.15 0.00 79 1011.6
20211017055306 52 257 0.0 0.0 0.00 0.15 0.00 78 1011.7
20211017054803 52 257 0.0 0.0 0.00 0.15 0.00 78 1011.7
20211017054303 52 257 0.0 0.0 0.00 0.15 0.00 78 1011.7
20211017053804 52 257 0.0 0.0 0.00 0.15 0.00 78 1011.6
20211017053303 52 257 0.0 0.0 0.00 0.15 0.00 78 1011.6
20211017052804 52 270 0.0 0.0 0.00 0.15 0.00 77 1011.6
20211017052305 52 304 0.0 0.0 0.00 0.15 0.00 77 1011.6
20211017051804 53 304 0.0 0.0 0.00 0.15 0.00 77 1011.6
20211017051304 53 304 0.0 0.0 0.00 0.15 0.00 76 1011.6
20211017050803 53 287 0.0 0.0 0.00 0.15 0.00 76 1011.6
20211017050304 53 289 0.0 0.0 0.00 0.15 0.00 76 1011.6
20211017045804 53 265 0.0 0.0 0.00 0.15 0.00 76 1011.6
20211017045306 53 276 0.0 0.0 0.00 0.15 0.00 77 1011.6
20211017044804 53 268 0.0 0.0 0.00 0.15 0.00 77 1011.6
20211017044304 53 261 0.0 0.0 0.00 0.15 0.00 77 1011.6
20211017043803 53 276 0.0 0.0 0.00 0.15 0.00 77 1011.6
20211017043304 53 271 0.0 0.0 0.00 0.15 0.00 78 1011.6
20211017042804 53 285 0.0 0.0 0.00 0.15 0.00 78 1011.6
20211017042305 53 271 0.0 0.0 0.00 0.15 0.00 78 1011.6
20211017041804 53 280 0.0 0.0 0.00 0.15 0.00 79 1011.6
20211017041303 53 286 0.0 0.0 0.00 0.15 0.00 78 1011.6
20211017040817 53 248 0.0 0.0 0.00 0.15 0.00 79 1011.6
20211017040303 53 248 0.0 0.0 0.00 0.15 0.00 79 1011.5
20211017035804 53 225 0.0 0.0 0.00 0.15 0.15 79 1011.5
20211017035305 53 253 0.0 0.0 0.00 0.15 0.15 79 1011.6
20211017034804 53 251 0.0 0.0 0.00 0.15 0.15 79 1011.6
20211017034304 53 259 0.0 0.0 0.00 0.15 0.15 79 1011.7
20211017033804 53 267 0.0 0.0 0.00 0.15 0.15 78 1011.7
20211017033303 53 242 0.0 0.0 0.00 0.15 0.15 78 1011.7
20211017032803 53 259 0.0 0.0 0.00 0.15 0.15 77 1011.7
20211017032305 53 267 0.0 0.0 0.00 0.15 0.15 77 1011.7
20211017031804 53 249 0.0 0.0 0.00 0.15 0.15 77 1011.7
20211017031304 53 324 0.0 0.0 0.00 0.15 0.15 77 1011.7
20211017030804 53 329 0.0 0.0 0.00 0.15 0.15 76 1011.6
20211017030303 54 329 0.0 0.0 0.00 0.15 0.15 76 1011.5
20211017025804 54 358 0.0 0.0 0.00 0.15 0.15 76 1011.5
20211017025305 54 348 0.0 0.0 0.00 0.15 0.15 76 1011.5
20211017024803 54 327 0.0 0.0 0.00 0.15 0.15 76 1011.5
20211017024303 54 343 0.0 0.0 0.00 0.15 0.15 76 1011.5
20211017023803 54 331 0.0 0.0 0.00 0.15 0.15 75 1011.4
20211017023304 54 13 0.0 0.0 0.00 0.15 0.15 75 1011.4
20211017022804 54 351 0.0 0.0 0.00 0.15 0.15 75 1011.4
20211017022306 55 15 0.0 0.0 0.00 0.15 0.15 75 1011.5
20211017021804 55 20 0.0 0.0 0.00 0.15 0.15 75 1011.6
20211017021303 55 19 0.0 0.0 0.00 0.15 0.15 74 1011.6
20211017020803 55 357 0.0 0.0 0.00 0.15 0.15 74 1011.4
20211017020303 55 12 0.0 0.0 0.00 0.15 0.15 73 1011.3
20211017015803 55 346 0.0 0.0 0.00 0.15 0.15 73 1011.2
20211017015305 55 355 0.0 0.0 0.00 0.15 0.15 72 1011.2
20211017014803 55 325 0.0 0.0 0.00 0.15 0.15 73 1011.1
20211017014304 55 323 0.0 0.0 0.00 0.15 0.15 73 1011.1
20211017013804 55 346 0.0 0.0 0.00 0.15 0.15 72 1011.0
20211017013304 56 5 0.0 0.0 0.00 0.15 0.15 73 1011.1
20211017012804 56 348 0.0 0.0 0.00 0.15 0.15 72 1010.9
20211017012305 56 349 0.0 0.0 0.00 0.15 0.15 72 1010.8
20211017011804 56 347 0.0 0.0 0.00 0.15 0.15 72 1010.7
20211017011304 56 22 0.0 0.0 0.00 0.15 0.15 72 1010.5
20211017010804 56 15 0.0 0.0 0.00 0.15 0.15 72 1010.5
20211017010304 56 342 0.0 0.0 0.00 0.15 0.15 74 1010.5
20211017005803 56 327 0.0 0.0 0.00 0.15 0.15 75 1010.4
20211017005305 57 6 0.0 0.0 0.00 0.15 0.15 75 1010.3
20211017004803 57 12 0.0 0.0 0.00 0.15 0.15 75 1010.2
20211017004303 57 339 0.0 0.0 0.00 0.15 0.15 75 1010.1
20211017003803 57 359 0.0 0.0 0.00 0.15 0.15 76 1010.2
20211017003304 57 341 0.0 0.0 0.00 0.15 0.15 75 1010.0
20211017002804 57 356 0.0 0.0 0.00 0.15 0.15 75 1009.7
20211017002306 57 333 0.0 0.0 0.00 0.15 0.15 75 1009.8
20211017001803 57 351 0.0 0.0 0.00 0.15 0.15 75 1009.6
20211017001303 57 334 0.0 0.9 0.00 0.15 0.15 75 1009.7
20211017000804 57 17 0.0 0.0 0.00 0.15 0.15 78 1009.6
20211017000303 57 345 0.0 0.0 0.00 0.15 0.15 79 1009.4
20211016235803 57 346 0.0 0.0 0.00 0.15 0.15 80 1009.2
20211016235307 57 324 0.0 0.0 0.00 0.15 0.15 81 1009.0
20211016234804 57 353 0.0 0.0 0.00 0.15 0.15 82 1009.1
20211016234304 57 4 0.0 0.0 0.00 0.15 0.15 83 1008.9
20211016233804 57 316 0.0 0.0 0.00 0.15 0.15 83 1009.0
20211016233303 58 339 0.0 0.0 0.00 0.15 0.15 85 1009.0
20211016232804 58 329 0.0 0.0 0.01 0.15 0.15 86 1008.9
20211016232305 58 23 0.0 0.0 0.01 0.15 0.15 86 1008.8
20211016231804 58 1 0.0 0.0 0.01 0.15 0.15 87 1008.4
20211016231303 58 310 0.0 0.0 0.01 0.15 0.15 86 1008.7
20211016230804 58 25 0.0 0.0 0.01 0.15 0.15 87 1008.4
20211016230303 58 337 0.0 0.0 0.01 0.15 0.15 88 1008.3
20211016225803 58 354 0.0 0.0 0.01 0.15 0.15 88 1008.4
20211016225305 58 5 0.0 0.0 0.01 0.15 0.15 88 1008.4
20211016224803 58 17 0.0 0.0 0.02 0.15 0.15 88 1008.3
20211016224303 59 355 0.0 0.0 0.03 0.15 0.15 88 1008.0
20211016223803 59 347 0.0 0.0 0.05 0.15 0.15 89 1007.7
20211016223304 59 332 0.0 0.0 0.06 0.15 0.15 89 1007.9
20211016222804 60 358 0.0 0.0 0.06 0.14 0.14 91 1007.7
20211016222306 60 18 0.0 0.0 0.06 0.14 0.14 92 1007.5
20211016221804 60 7 0.0 0.0 0.07 0.14 0.14 93 1007.5
20211016221304 60 42 0.0 0.0 0.08 0.14 0.14 92 1007.3
20211016220804 60 342 0.0 0.0 0.09 0.14 0.14 92 1007.1
20211016220304 61 0 0.0 0.0 0.10 0.14 0.14 92 1007.0
20211016215803 61 355 0.0 0.0 0.11 0.14 0.14 92 1006.9
20211016215305 61 28 0.0 0.0 0.11 0.14 0.14 92 1006.4
20211016214804 61 19 0.0 0.0 0.10 0.13 0.13 92 1006.3
20211016214304 61 357 0.0 0.0 0.09 0.12 0.12 93 1006.7
20211016213804 62 319 0.0 0.0 0.08 0.11 0.11 93 1006.9
20211016213304 62 345 0.0 0.0 0.06 0.09 0.09 93 1006.6
20211016212803 62 339 0.0 0.0 0.06 0.08 0.08 93 1006.6
20211016212305 62 314 0.0 0.0 0.06 0.08 0.08 93 1006.6
20211016211803 62 350 0.0 0.0 0.06 0.07 0.07 93 1006.3
20211016211303 62 357 0.0 0.0 0.06 0.06 0.06 93 1006.3
20211016210803 62 303 0.0 0.0 0.05 0.05 0.05 93 1006.0
20211016210304 62 305 0.0 0.0 0.04 0.04 0.04 93 1006.1
20211016205804 62 284 0.0 0.0 0.03 0.03 0.03 93 1006.3
20211016205306 62 276 0.0 0.0 0.03 0.03 0.03 93 1006.0
20211016204803 62 279 0.0 0.0 0.03 0.03 0.03 93 1005.6
20211016204304 62 315 0.0 0.0 0.03 0.03 0.03 93 1005.4
20211016203804 62 19 0.0 0.0 0.03 0.03 0.03 92 1005.3
20211016203304 62 286 0.0 0.0 0.03 0.03 0.03 92 1005.3
20211016202803 62 271 0.0 0.0 0.02 0.02 0.02 92 1005.4
20211016202305 62 297 0.0 0.0 0.02 0.02 0.02 91 1005.7
20211016201804 62 300 0.0 0.0 0.01 0.01 0.01 91 1005.9
20211016201304 62 281 0.0 0.0 0.00 0.00 0.00 91 1005.9
20211016200804 62 255 0.0 0.0 0.00 0.00 0.00 90 1006.1
20211016200304 62 270 0.0 0.0 0.00 0.00 0.00 90 1005.8
20211016195804 63 281 0.0 0.0 0.00 0.00 0.00 90 1005.5
20211016195306 63 290 0.0 0.0 0.00 0.00 0.00 90 1004.9
20211016194804 63 355 0.0 0.0 0.00 0.00 0.00 90 1004.6
20211016194304 63 248 0.0 0.0 0.00 0.00 0.00 89 1004.6
20211016193804 63 305 0.0 0.0 0.00 0.00 0.00 89 1004.6
20211016193304 63 304 0.0 0.0 0.00 0.00 0.00 88 1004.9
20211016192804 63 290 0.0 0.0 0.00 0.00 0.00 87 1004.9
20211016192306 63 280 0.0 0.0 0.00 0.00 0.00 86 1005.0
20211016191804 64 281 0.0 0.0 0.00 0.00 0.00 85 1005.1
20211016191304 64 314 0.0 0.0 0.00 0.00 0.00 84 1005.2
20211016190804 65 288 0.0 0.0 0.00 0.00 0.00 82 1005.2
20211016190303 65 286 0.0 0.0 0.00 0.00 0.00 80 1005.1
20211016185804 66 294 0.0 0.0 0.00 0.00 0.00 78 1005.1
20211016185306 66 290 0.0 0.0 0.00 0.00 0.00 76 1004.9
20211016184804 67 314 0.0 0.0 0.00 0.00 0.00 74 1004.5
20211016184303 67 303 0.0 0.0 0.00 0.00 0.00 73 1004.3
20211016183803 67 241 0.0 0.0 0.00 0.00 0.00 73 1004.4
20211016183304 67 313 0.0 0.0 0.00 0.00 0.00 72 1004.3
20211016182805 68 307 0.0 0.0 0.00 0.00 0.00 73 1004.2
20211016182306 68 344 0.0 0.0 0.00 0.00 0.00 74 1003.9
20211016181804 68 344 0.0 0.0 0.00 0.00 0.00 74 1004.0
20211016181304 68 331 0.0 0.0 0.00 0.00 0.00 73 1003.9
20211016180804 68 344 0.0 0.0 0.00 0.00 0.00 74 1003.9
20211016180303 68 290 0.0 0.0 0.00 0.00 0.00 74 1003.8
20211016175804 68 264 0.0 0.0 0.00 0.00 0.00 75 1003.8
20211016175306 68 320 0.0 0.0 0.00 0.00 0.00 74 1003.9
20211016174804 68 320 0.0 0.0 0.00 0.00 0.00 74 1004.0
20211016174304 69 316 0.0 0.0 0.00 0.00 0.00 74 1004.1
20211016173805 70 291 0.0 0.0 0.00 0.00 0.00 83 1003.7
20211016173304 70 272 0.0 0.0 0.00 0.00 0.00 82 1003.6
20211016172804 71 288 0.0 0.0 0.00 0.00 0.00 79 1003.7
20211016172306 73 274 0.0 0.0 0.00 0.00 0.00 76 1003.7
20211016171803 74 263 0.0 0.0 0.00 0.00 0.00 73 1003.7
20211016171304 74 252 0.0 0.0 0.00 0.00 0.00 72 1003.7
20211016170804 75 239 0.0 0.0 0.00 0.00 0.00 73 1003.7
20211016170303 75 249 0.0 0.0 0.00 0.00 0.00 71 1003.7
20211016165803 76 247 0.0 0.0 0.00 0.00 0.00 70 1003.7
20211016165306 76 223 0.0 0.0 0.00 0.00 0.00 70 1003.8
20211016164803 76 193 0.0 0.0 0.00 0.00 0.00 70 1003.8
20211016164303 76 241 0.0 0.9 0.00 0.00 0.00 69 1003.8
20211016163803 77 220 0.0 0.0 0.00 0.00 0.00 69 1004.0
20211016163303 77 202 0.0 0.0 0.00 0.00 0.00 68 1004.0
20211016162803 77 216 0.0 0.0 0.00 0.00 0.00 68 1004.0
20211016162305 76 213 0.0 0.0 0.00 0.00 0.00 69 1003.9
20211016161805 76 238 0.0 0.0 0.00 0.00 0.00 69 1003.8
20211016161304 77 187 0.0 0.0 0.00 0.00 0.00 68 1003.8
20211016160803 77 212 0.0 0.0 0.00 0.00 0.00 68 1003.7